Location: Arcabell
(42.4308°N, 1.4823°E)
Time: 14:15:57
(UTC+00:00)

NOSS 3-2 (A) - Pass Details

Date: 08 August 2025
Orbit: 668 x 1535 km, 63.4° (Epoch: 13 December)

Event Time Altitude Azimuth Distance (km) Brightness Sun altitude
Exits shadow 21:53:02 11° 229° (SW) 2,089 5.2 -24.8°
Maximum altitude 21:57:39 62° 310° (NW) 879 3.4 -25.3°
Drops below altitude 10° 22:03:29 10° 31° (NNE) 2,596 6.0 -25.9°
Sets 22:06:19 0° 35° (NE) 3,679 6.8 -26.1°
